Weather History for Sanford, NC

Change the Weather History Date:

Monday, March 12, 2012

  Actual Average (KRDU) Record (KRDU)
Temperature  
Mean Temperature 52 °F 50 °F  
Max Temperature 71 °F 62 °F 90 °F (1990)
Min Temperature 32 °F 39 °F 19 °F (1969)
Degree Days  
Heating Degree Days 14 15  
Month to date heating degree days 195  
Since 1 July heating degree days 2767  
Cooling Degree Days 0 0  
Month to date cooling degree days 0  
Year to date cooling degree days 1  
Growing Degree Days 2 (Base 50)    
Moisture  
Dew Point 39 °F    
Average Humidity 76    
Maximum Humidity 100    
Minimum Humidity 41    
Precipitation  
Precipitation 0.00 in 0.13 in 1.77 in (1891)
Month to date precipitation 1.61  
Year to date precipitation 8.34  
Snow  
Snow 0.00 in 0.00 in 2.60 in (1914)
Month to date snowfall 0.3  
Since 1 July snowfall 5.8  
Snow Depth -    
Sea Level Pressure  
Sea Level Pressure 30.40 in    
Wind  
Wind Speed 2 mph (SSW)    
Max Wind Speed 12 mph    
Max Gust Speed 16 mph    
Visibility 10 miles    
Events      
T = Trace of Precipitation, MM = Missing Value Source: NWS Daily Summary

Daily Weather History Graph

Daily Weather History Graph

Search for Another Location

Airport:

Trip Planner

Search our weather history database for the weather conditions in past years. The results will help you decide how hot, cold, wet, or windy it might be!

Date:

Astronomy

Mar. 12, 2012 Rise Set
Actual Time 7:30 AM EDT 7:21 PM EDT
Civil Twilight 7:05 AM EDT 7:47 PM EDT
Nautical Twilight 6:35 AM EDT 8:16 PM EDT
Astronomical Twilight 6:06 AM EDT 8:46 PM EDT
Moon No Moon Rise 10:02 AM EDT (3/12)
Length of Visible Light 12h 41m
Length of Day
11h 51m
Waning Gibbous, 76% of the Moon is Illuminated
Mar 12
Waning Gibbous
Mar 14
Last Quarter
Mar 22
New
Mar 30
First Quarter
Apr 6
Full

Hourly Weather History & Observations

Time (EDT) Temp. Dew Point Humidity Pressure Visibility Wind Dir Wind Speed Gust Speed Precip Events Conditions
12:15 AM 35.6 °F 32.0 °F 87% 30.46 in 10.0 mi Calm Calm - N/A   Clear
12:35 AM 35.6 °F 32.0 °F 87% 30.46 in 10.0 mi Calm Calm - N/A   Clear
12:55 AM 35.6 °F 32.0 °F 87% 30.45 in 10.0 mi Calm Calm - N/A   Clear
1:15 AM 35.6 °F 32.0 °F 87% 30.45 in 10.0 mi Calm Calm - N/A   Clear
1:35 AM 33.8 °F 32.0 °F 93% 30.44 in 10.0 mi Calm Calm - N/A   Clear
1:55 AM 33.8 °F 32.0 °F 93% 30.44 in 10.0 mi Calm Calm - N/A   Clear
2:15 AM 33.8 °F 32.0 °F 93% 30.43 in 10.0 mi Calm Calm - N/A   Clear
2:35 AM 33.8 °F 32.0 °F 93% 30.43 in 10.0 mi Calm Calm - N/A   Clear
2:55 AM 35.6 °F 32.0 °F 87% 30.43 in 10.0 mi Calm Calm - N/A   Clear
3:35 AM 33.8 °F 32.0 °F 93% 30.43 in 10.0 mi Calm Calm - N/A   Clear
3:55 AM 33.8 °F 32.0 °F 93% 30.43 in 10.0 mi Calm Calm - N/A   Clear
4:15 AM 32.0 °F 32.0 °F 100% 30.43 in 10.0 mi Calm Calm - N/A   Clear
4:35 AM 32.0 °F 32.0 °F 100% 30.42 in 10.0 mi Calm Calm - N/A   Clear
4:55 AM 32.0 °F 32.0 °F 100% 30.42 in 10.0 mi Calm Calm - N/A   Clear
5:15 AM 32.0 °F 32.0 °F 100% 30.42 in 10.0 mi Calm Calm - N/A   Clear
5:35 AM 32.0 °F 32.0 °F 100% 30.42 in 10.0 mi Calm Calm - N/A   Clear
5:55 AM 32.0 °F 32.0 °F 100% 30.42 in 10.0 mi Calm Calm - N/A   Clear
6:15 AM 32.0 °F 32.0 °F 100% 30.42 in 10.0 mi Calm Calm - N/A   Clear
6:35 AM 32.0 °F 32.0 °F 100% 30.42 in 10.0 mi Calm Calm - N/A   Clear
6:55 AM 32.0 °F 32.0 °F 100% 30.41 in 10.0 mi Calm Calm - N/A   Clear
7:15 AM 32.0 °F 32.0 °F 100% 30.41 in 10.0 mi Calm Calm - N/A   Clear
7:35 AM 32.0 °F 32.0 °F 100% 30.41 in 10.0 mi Calm Calm - N/A   Clear
7:55 AM 32.0 °F 32.0 °F 100% 30.42 in 10.0 mi Calm Calm - N/A   Clear
8:15 AM 32.0 °F 32.0 °F 100% 30.41 in 10.0 mi Calm Calm - N/A   Clear
8:35 AM 32.0 °F 32.0 °F 100% 30.42 in 10.0 mi Calm Calm - N/A   Clear
8:55 AM 35.6 °F 33.8 °F 93% 30.42 in 10.0 mi Calm Calm - N/A   Clear
9:15 AM 41.0 °F 35.6 °F 81% 30.42 in 10.0 mi Calm Calm - N/A   Clear
9:35 AM 44.6 °F 37.4 °F 76% 30.42 in 10.0 mi Calm Calm - N/A   Clear
9:55 AM 48.2 °F 41.0 °F 76% 30.42 in 10.0 mi Calm Calm - N/A   Clear
10:15 AM 50.0 °F 42.8 °F 76% 30.43 in 10.0 mi Calm Calm - N/A   Clear
10:35 AM 53.6 °F 44.6 °F 72% 30.43 in 10.0 mi Calm Calm - N/A   Clear
10:55 AM 57.2 °F 46.4 °F 67% 30.43 in 10.0 mi Calm Calm - N/A   Clear
11:15 AM 60.8 °F 48.2 °F 63% 30.43 in 10.0 mi SSW 3.5 mph - N/A   Mostly Cloudy
11:35 AM 62.6 °F 50.0 °F 63% 30.41 in 10.0 mi SW 10.4 mph - N/A   Scattered Clouds
11:55 AM 64.4 °F 50.0 °F 59% 30.41 in 10.0 mi SSW 9.2 mph - N/A   Scattered Clouds
12:15 PM 64.4 °F 50.0 °F 59% 30.40 in 10.0 mi SW 11.5 mph 16.1 mph N/A   Scattered Clouds
12:35 PM 66.2 °F 50.0 °F 56% 30.40 in 10.0 mi SW 11.5 mph - N/A   Mostly Cloudy
12:55 PM 68.0 °F 48.2 °F 49% 30.39 in 10.0 mi SSW 9.2 mph - N/A   Scattered Clouds
1:15 PM 66.2 °F 50.0 °F 56% 30.38 in 10.0 mi SSW 8.1 mph - N/A   Scattered Clouds
1:35 PM 66.2 °F 48.2 °F 52% 30.37 in 10.0 mi SSW 8.1 mph - N/A   Mostly Cloudy
1:55 PM 68.0 °F 48.2 °F 49% 30.36 in 10.0 mi SSW 10.4 mph - N/A   Overcast
2:15 PM 68.0 °F 48.2 °F 49% 30.35 in 10.0 mi SSW 8.1 mph - N/A   Overcast
2:35 PM 68.0 °F 48.2 °F 49% 30.34 in 10.0 mi SSW 8.1 mph - N/A   Overcast
2:55 PM 69.8 °F 46.4 °F 43% 30.32 in 10.0 mi SSW 6.9 mph - N/A   Mostly Cloudy
3:15 PM 69.8 °F 46.4 °F 43% 30.31 in 10.0 mi South 10.4 mph 16.1 mph N/A   Mostly Cloudy
3:35 PM 69.8 °F 46.4 °F 43% 30.31 in 10.0 mi SSW 8.1 mph - N/A   Scattered Clouds
3:55 PM 69.8 °F 46.4 °F 43% 30.30 in 10.0 mi SSW 8.1 mph - N/A   Scattered Clouds
4:15 PM 69.8 °F 46.4 °F 43% 30.30 in 10.0 mi SSW 6.9 mph - N/A   Mostly Cloudy
4:35 PM 71.6 °F 46.4 °F 41% 30.29 in 10.0 mi South 8.1 mph - N/A   Scattered Clouds
4:55 PM 69.8 °F 46.4 °F 43% 30.28 in 10.0 mi South 10.4 mph - N/A   Mostly Cloudy
5:15 PM 69.8 °F 46.4 °F 43% 30.28 in 10.0 mi South 5.8 mph - N/A   Scattered Clouds
5:35 PM 69.8 °F 44.6 °F 40% 30.27 in 10.0 mi South 8.1 mph - N/A   Scattered Clouds
5:55 PM 69.8 °F 44.6 °F 40% 30.27 in 10.0 mi South 9.2 mph - N/A   Scattered Clouds
6:15 PM 69.8 °F 44.6 °F 40% 30.27 in 10.0 mi SSE 5.8 mph - N/A   Mostly Cloudy
6:35 PM 68.0 °F 44.6 °F 43% 30.26 in 10.0 mi South 5.8 mph - N/A   Scattered Clouds
6:55 PM 68.0 °F 44.6 °F 43% 30.26 in 10.0 mi South 4.6 mph - N/A   Scattered Clouds
7:15 PM 68.0 °F 44.6 °F 43% 30.26 in 10.0 mi South 5.8 mph - N/A   Scattered Clouds
7:35 PM 66.2 °F 44.6 °F 46% 30.26 in 10.0 mi South 4.6 mph - N/A   Scattered Clouds
7:55 PM 64.4 °F 44.6 °F 49% 30.27 in 10.0 mi South 3.5 mph - N/A   Clear
8:15 PM 62.6 °F 44.6 °F 52% 30.26 in 10.0 mi Calm Calm - N/A   Clear
8:35 PM 60.8 °F 46.4 °F 59% 30.26 in 10.0 mi Calm Calm - N/A   Clear
9:15 PM 59.0 °F 46.4 °F 63% 30.27 in 10.0 mi Calm Calm - N/A   Clear
9:55 PM 57.2 °F 46.4 °F 67% 30.27 in 10.0 mi South 3.5 mph - N/A   Clear
10:15 PM 59.0 °F 46.4 °F 63% 30.27 in 10.0 mi South 3.5 mph - N/A   Clear
10:35 PM 59.0 °F 48.2 °F 67% 30.26 in 10.0 mi South 5.8 mph - N/A   Clear
10:55 PM 60.8 °F 48.2 °F 63% 30.26 in 10.0 mi South 9.2 mph - N/A   Clear
11:15 PM 60.8 °F 48.2 °F 63% 30.26 in 10.0 mi South 9.2 mph - N/A   Clear
11:35 PM 60.8 °F 48.2 °F 63% 30.26 in 10.0 mi South 8.1 mph - N/A   Clear
11:55 PM 60.8 °F 50.0 °F 68% 30.26 in 10.0 mi South 8.1 mph - N/A   Clear